Simultaneous Nadir Overpasses (SNOs) Predictions

Prediction of SNOs between METOP-A and NOAA-19 Satellite Orbit:

Table of predicted SNOs for the next 14.0 days since TLE Epoch: 10/20/2012
Index Date (METOP-A) Time (METOP-A) METOP-A Lat,Lon Date (NOAA-19) Time (NOAA-19) NOAA-19 Lat,Lon Distance(km) Time Diff (sec)
1 10/22/2012 01:22:42 73.22, 152.10 10/22/2012 01:21:27 73.21, 152.11 1.27 75
2 10/22/2012 02:13:25 -73.18, -40.65 10/22/2012 02:12:32 -73.16, -40.57 3.36 53
3 10/22/2012 03:04:05 73.14, 126.60 10/22/2012 03:03:31 73.16, 126.70 3.61 34
4 10/22/2012 03:54:47 -73.16, -66.04 10/22/2012 03:54:37 -73.16, -66.09 1.56 10
5 10/22/2012 04:45:27 73.12, 101.21 10/22/2012 04:45:35 73.11, 101.29 3.03 8
6 10/22/2012 05:36:09 -73.13, -91.44 10/22/2012 05:36:41 -73.11, -91.50 3.05 32
7 10/22/2012 06:26:49 73.09, 75.81 10/22/2012 06:27:40 73.11, 75.77 2.05 51
8 10/22/2012 07:17:32 -73.06,-116.94 10/22/2012 07:18:45 -73.06,-116.90 1.16 73
9 10/22/2012 08:08:25 72.35, 48.95 10/22/2012 08:09:31 72.40, 51.75 94.22 66
10 10/31/2012 22:43:21 -73.28, 12.05 10/31/2012 22:42:07 -73.29, 11.80 8.32 74
11 10/31/2012 23:34:01 73.22, 179.27 10/31/2012 23:33:03 73.19, 179.27 2.95 58
12 11/01/2012 00:24:44 -73.19, -13.47 11/01/2012 00:24:10 -73.19, -13.50 1.33 34
13 11/01/2012 01:15:23 73.19, 153.86 11/01/2012 01:15:08 73.19, 153.75 3.59 15
14 11/01/2012 02:06:06 -73.16, -38.87 11/01/2012 02:06:14 -73.14, -38.91 2.98 8
15 11/01/2012 02:56:46 73.11, 128.34 11/01/2012 02:57:11 73.09, 128.45 3.77 25
16 11/01/2012 03:47:29 -73.08, -64.39 11/01/2012 03:48:18 -73.09, -64.32 2.33 49
17 11/01/2012 04:38:08 73.07, 102.93 11/01/2012 04:39:16 73.09, 102.93 2.12 68
18 11/01/2012 05:29:04 -72.39, -91.15 11/01/2012 05:30:10 -72.44, -88.46 90.53 66




NCC Satellite Simultaneous Nadir Overpasses (SNOs) Prediction Service
